Weather in Savannah

United States     32°04′55″N   81°05′48″W
temp.,
°C
wind,
m/s
gust,
m/s
humid.,
%
clouds,
%
prec.,
mm/h
press.,
hPa
HPBL,
m
17 may, mon
mon1723:00+17sse22714 0.0 102360
02:00+16sse127354 0.0 102351
05:00+15ssw01765 0.0 102211
08:00+20ene126235 0.0 1023135
11:00+24e454266 0.0 10241268
14:00+25e564393 0.0 10241403
17:00+24ese565091 0.0 10221206
20:00+20e2575100 0.0 1023117
18 may, tue
tue1823:00+19ese268344 0.0 1024125
02:00+19ese258522 0.0 1023111
05:00+19ese24865 0.0 102285
08:00+22e367263 0.1 1024652
11:00+25e565591 0.1 10251501
14:00+25e565484 0.1 10251513
17:00+25e565726 0.0 10241251
20:00+21e487754 0.0 1024472
19 may, wed
wed1923:00+20e388488 0.0 1025316
02:00+19ene388550 0.0 1024314
05:00+19ene388765 0.0 1023330
08:00+22ene477411 0.0 1025769
11:00+25e56555 0.0 10261439
14:00+26e665312 0.0 10251593
17:00+25e56598 0.0 10241226
20:00+21e37795 0.1 1024437
20 may, thu
thu2023:00+20ese378325 0.1 1025245
02:00+20ese25840 0.2 1025124
05:00+19e36886 0.1 1025184
08:00+21ene37780 0.3 1026750
11:00+25e575355 0.1 10281576
14:00+26e68480 0.1 10271698
17:00+25e67545 0.0 10261460
20:00+21ene48710 0.0 1027524
21 may, fri
fri2123:00+20e48768 0.0 1027427
02:00+19ene368052 0.0 1027160
05:00+21e377288 0.0 1027416
08:00+23e387096 0.1 1028798
11:00+26e565045 0.0 10291643
14:00+27e56495 0.0 10281489
17:00+26e45545 0.0 10271139
20:00+21ese25805 0.0 1027201